Погода Нижний Тагил

Погода Нижний Тагил : погода сейчас, прогноз погоды и архив. Всё, что Вы хотите узнать о погоде Нижний Тагил!

Хотите узнать прогноз погоды Нижний Тагил? Тогда Вам сюда: Погода Нижний Тагил

Поиск расширенной информации на нашем сайте:

Другие новости

Новости СМИ2

Главная страница сайта

Новости сайта

02.10.2013

Напоминаем, что на нашем новом сайте вы можете получить высокодетализированные прогнозы погоды по пунктам России, СНГ и мира (включающие важные для авиации метеовеличины, такие как направление и скорость ветра, видимость, явления погоды, количество и форма облачности, нижняя и верхняя граница облачности), а также ознакомиться с разнообразными материалами по авиационной метеорологии и подборкой полезных ссылок на эту тему.

Сайт Метеоцентр.Азия посвящён разработке технологий оптимизации авиаметеорологического обслуживания, включая проектирование и перспективное создание нескольких автоматизированных авиаметеорологических систем:
- система выпуска высокодетальных прогностических карт явлений погоды для нижнего воздушного пространства по России и ближнему зарубежью;
- система верификации прогнозов TAF (выпускаемых синоптиками официальных АМСГ РФ и ближнего зарубежья) и AUTOTAF (выпускаемых сайтом Метеоцентр.Азия) - выявление ошибок, онлайн-сопоставление с фактической погодой METAR, автоматическое внесение коррективов в прогнозы при резком отклонении фактической погоды от прогноза, подсчёт оправдываемости прогнозов по элементам и в целом;
- система обработки, анализа и отображения авиаметеорологической информации для применения провайдерами метеорологической информации.

Рекомендуем: Сравнить цены на лазерная гравировка.

Погода Нижний Тагил - сегодня

Время (UTC), дата Ветер
(°,м/с) 
Видим.   Явления Облачность Т
(°С)
Тd
(°С)
f(%) Тe
(°С)
Pmin
(гПа)
dP
(гПа)
Po
(мм)
O2
(г/м3)
Тmin Tmax R s Состояние
почвы
03 18.02.17 220 (ЮЗ) 20000 м    9/5 600 м средняя, верхняя 
[Sc|Ac lent|Ci fib]
-13 -15.7 80 -16  1013.4  -1.7  735  312  -13.4      45  равномерный
сухой снег
100% 
06 18.02.17 220 (ЮЗ) 20000 м    10/8 600 м средняя 
[Sc|As op]
-11.7 -15.3 75 -16  1011.9  -1.3  734  310           
09 18.02.17 220 (ЮЗ) 20000 м    10/10 600 м 
[Sc]
-9.5 -14.7 66 -13  1009.4  -2.1  732  307           
12 18.02.17 220 (ЮЗ) 20000 м    10/10 600 м 
[Sc]
-8.1 -13.7 64 -12  1007.2  -2  731  305           
15 18.02.17 220 (ЮЗ) 5-10{11}  20000 м    10/10 600 м 
[Sc]
-8.9 -12.8 73 -13  1006  -1.3  730  305    -8.1       
18 18.02.17 230 (ЮЗ) 5{10}  20000 м    10/10 600 м 
[Sc]
-9.9 -13.1 77 -15  1004.6  -1.5  729  306           
21 18.02.17 220 (ЮЗ) 3{11}  20000 м    10/10 600 м 
[Sc]
-10.7 -13.8 78 -14  1002.5  -2.1  727  306           
00 19.02.17 220 (ЮЗ) 20000 м    10/10 600 м 
[Sc]
-11.4 -14.6 77 -16  1000.1  -2.4  725  306           
03 19.02.17 220 (ЮЗ) 20000 м    10/10 600 м 
[Sc]
-11.4 -14.7 76 -15  998.2  -1.8  724  306  -12      44  равномерный
сухой снег
100% 
06 19.02.17 220 (ЮЗ) 20000 м    9/9 600 м 
[Sc]
-10.8 -14.5 74 -14  996.8  -1.4  723  304           
09 19.02.17 240 (ЮЗ) 20000 м    10/0 средняя 
[As trans]
-8.8 -13.1 71 -13  995.2  -1.2  722  302           
12 19.02.17 250 (З) 20000 м  в посл. час снег  10/0 средняя 
[As trans]
-8 -11.4 76 -12  995.4  0.3  722  301           
15 19.02.17 270 (З) 20000 м    6/6 600 м 
[Sc]
-8.7 -10.5 87 -12  997.1  1.6  723  302    -7.9  0.0     
18 19.02.17 290 (З) 8-13{14}  20000 м  позёмок{снег}  6/6 600 м 
[Sc]
-8.9 -13 72 -15  1000.6  3.3  726  303           
21 19.02.17 280 (З) 5-10{17}  20000 м  позёмок  8/8 600 м 
[Sc]
-10.1 -14 73 -15  1004.1  3.2  728  306           
00 20.02.17 260 (З) 5{15}  20000 м  позёмок  6/6 600 м 
[Sc]
-10.5 -14.5 72 -15  1005.9  1.7  729  307           
03 20.02.17 240 (ЮЗ) 20000 м    10/8 600 м средняя 
[Sc|As trans]
-11.2 -13.7 82 -15  1006.2  0.3  730  308  -11.2    0.0  44  равномерный
сухой снег
100% 
06 20.02.17 180 (Ю) 20000 м    10/0 верхняя 
[Cc]
-9 -12.3 77 -13  1001.9  -3.9  727  304  -12.3         
09 20.02.17 180 (Ю) 4{10}  4000 м  слаб. снег  10/0 средняя 
[As op]
-7 -8.4 90 -11  997.4  -4.1  724  300           
12 20.02.17 190 (Ю) 4000 м  слаб. ливневой снег  10/10 600 м кучево-дожд. 
[Cb cap]
-4.3 -5.1 94 -7  994.4  -2.6  722  296           
15 20.02.17 220 (ЮЗ) 4000 м  слаб. ливневой снег  9/9 600 м кучево-дожд. 
[Cb cap]
-2.7 -3.6 94 -6  992.2  -1.9  720  293    -2.7     
18 20.02.17 220 (ЮЗ) 5{10}  20000 м  {ливн. осадки}  10/10 600 м 
[Sc]
-1.4 -2.4 93 -5  990.8  -1.2  719  292           
21 20.02.17 230 (ЮЗ) 5-11{11}  4000 м  слаб. снег  10/8 600 м средняя 
[Sc|As op]
-0.5 -1.2 95 -4  990.1  -0.5  719  290           
00 21.02.17 240 (ЮЗ) 5-10{11}  20000 м  {снег}  10/6 600 м средняя 
[Sc|As op]
-0.1 -0.9 94 -3  990.3  0.2  719  290           
03 21.02.17 230 (ЮЗ) 4{12}  20000 м    10/10 600 м кучево-дожд. 
[Cb cap]
+0.5 -1.3 88 -2  991.2  720  290  -2.7    46  равномерный
мокрый или
старый снег
100% 
Время (UTC), дата Ветер
(°,м/с) 
Видим.   Явления Облачность Т
(°С)
Тd
(°С)
f(%) Тe
(°С)
Pmin
(гПа)
dP
(гПа)
Po
(мм)
O2
(г/м3)
Тmin Tmax R s Состояние
почвы

Для получения пояснительной информации подведите курсор к названию столбца.

ПОГОДА Нижний Тагил - архив

Всё, что Вы хотите узнать о погоде Нижний Тагил - удобно и подробно!

Выберите нужную дату (начиная с 1 января 2015* года) и нажмите кнопку "Найти".
Будут отображены архивные сводки погоды по пункту Нижний Тагил, начиная с указанной даты.


Отображать данные в формате CSV (для использования в таблицах Excel)


Внимание! Наш архив погоды предназначен исключительно для личного некоммерческого использования в познавательных целях. Если Вам необходимы официальные справки о состоянии погоды (для производственных, юридических, коммерческих и т.п. целей), обращайтесь в органы Росгидромета.

*Примечание: данная дата относится к архиву по метеостанциям СССР (Россия, СНГ, Балтия).
Архив по метеостанциям Зарубежной Европы и Азии (кроме Китая) хранится 10 дней, по другим регионам земного шара (Китай, Африка, Америка, Австралия, Океания) - 1 день.

Нижний Тагил - район местоположения метеостанции


Название, широта, долгота, высота метеостанции:
Нижний Тагил 57.9°ш. 60.1°д. 260 м над ур. моря [Российская Федерация]

Дополнительная информация

В oтличие oт бoльшинства пoгoдных сайтoв мы публикуем пoдрoбную метеoинфoрмацию в детальнoм прoфессиoнальнoм фoрмате.

Характеристики температуры и влажнoсти вoздуха измеряются на высoте 2 м в тени вдали oт зданий и деревьев.
Скoрoсть ветра измеряется на высoте 10 м (на урoвне рoста челoвека скoрoсть ветра ниже в 1.5-2 раза). Если метеoстанция нахoдится в гoрoде или в лесу, тo скoрoсть ветра занижена на 2-4 м/с пo сравнению с oткрытым местoм. Скoрoсть ветра над акватoриями крупных рек и oзёр, а также на вершинах хoлмoв на 2-5 м/с выше, чем в oбычных услoвиях.
Атмoсфернoе давление в разных тoчках местнoсти мoжет значительнo oтличаться oт давления на метеoстанции, в зависимoсти oт услoвий рельефа (при пoдъёме на 10 м давление пoнижается примернo на 1 мм рт.ст.).